AirNav   ATP
 
 1551 users online  

29LL Monroe County Ambulance Service Heliport
Waterloo, Illinois, USA

GOING TO WATERLOO?


FAA INFORMATION EFFECTIVE 14 SEPTEMBER 2017

Location

FAA Identifier: 29LL
Lat/Long: 38-20-21.4000N / 090-09-49.9000W
38-20.356667N / 090-09.831667W
38.3392778 / -90.1638611
(estimated)
Elevation: 630 ft. / 192 m (estimated)
Variation: 00E (2000)
From city: 1 mile W of WATERLOO, IL
Time zone: UTC -5 (UTC -6 during Standard Time)
Zip code: 62298

Heliport Operations

Heliport use: Private use. Permission required prior to landing
Activation date: 02/2001
Control tower: no
ARTCC: KANSAS CITY CENTER
FSS: SAINT LOUIS FLIGHT SERVICE STATION
Attendance: CONTINUOUS
Segmented circle: no

Heliport Communications

WX ASOS at CPS (14 nm N): PHONE 618-332-0001

Nearby radio navigation aids

VOR radial/distance  VOR name  Freq  Var
CSXr160/26.5CARDINAL VOR/DME116.4500E
TOYr202/26.6TROY VORTAC116.0004E
STLr153/34.7ST LOUIS VORTAC117.4001E

 
NDB name  Hdg/Dist  Freq  Var  ID
ACORE204/11.935000WCP -.-. .--.
CIVIC MEMORIAL190/33.626301WCVM -.-. ...- --

Heliport Services

Runway Information

Helipad H1

Dimensions: 40 x 40 ft. / 12 x 12 m
Surface: asphalt
Latitude: 38-20.340000N
Longitude: 090-09.831667W
Elevation: 630.0 ft.
Traffic pattern: leftleft

Heliport Ownership and Management from official FAA records

Ownership: Privately-owned
Owner: MONROE COUNTY
100 S MAIN ST
WATERLOO, IL 62298
Phone 618-939-8681
Manager: CARLA HEISE
901 ILLINOIS AVE
WATERLOO, IL 62298
Phone 618-939-6175

Additional Remarks

A52-H1 MKD POWERLINE 270 FT & 235 FT S, BLDG 125 FT E & TREES 105 FT N.

Instrument Procedures

There are no published instrument procedures at 29LL.

Some nearby airports with instrument procedures:

KFES - Festus Memorial Airport (14 nm SW)
KCPS - St Louis Downtown Airport (14 nm N)
KBLV - Scott Air Force Base/MidAmerica Airport (20 nm NE)
KSAR - Sparta Community Airport-Hunter Field (25 nm SE)
KSTL - St Louis Lambert International Airport (26 nm N)
 
Loc | Ops | Rwys | IFR | FBO | Links
Com | Nav | Svcs | Stats | Notes


 
Area around 29LL (Monroe County Ambulance Service Heliport)
 
Road maps at: MapQuest Bing Google
 
Aerial photo
No photo
 
Sectional chart

 
Airport distance calculator
Flying to Monroe County Ambulance Service Heliport? Find the distance to fly.

From to 29LL

Sunrise and sunset
Times for 21-Sep-2017
 Local
(UTC-5)
 Zulu
(UTC)
Morning civil twilight06:2211:22
Sunrise06:4811:48
Sunset18:5923:59
Evening civil twilight19:2500:25

Current date and time
Zulu (UTC)  21-Sep-2017 20:25:53
Local (UTC-5)  21-Sep-2017 15:25:53
 
METAR
KCPS 
14nm N 
211953Z 13009KT 10SM CLR 33/20 A2998 RMK AO2 SLP147 T03330200 $
KBLV 
19nm NE 
211955Z 17008KT 7SM FEW200 33/18 A3002 RMK SLP156 AO2A WND DATA ESTMD T03270184
KSAR 
25nm SE 
211955Z AUTO 15010G16KT 10SM CLR 33/21 A3001 RMK AO2 T03290208
KSTL 
26nm N 
211951Z 10010KT 10SM FEW040 SCT150 BKN200 31/22 A2999 RMK AO2 SLP142 T03110222
TAF
KCPS 
14nm N 
211730Z 2118/2218 12006KT P6SM BKN250 FM212100 16005KT P6SM SCT250 TEMPO 2210/2213 5SM BR
KBLV 
19nm NE 
211608Z 2116/2222 18009KT 9999 FEW050 FEW200 QNH2995INS TX37/2121Z TN20/2212Z
NOTAMs
Click for the latest NOTAMs
NOTAMs are issued by the DoD/FAA and will open in a separate window not controlled by AirNav.

 

 
 

Would you like to see your business listed on this page?

 If your business provides an interesting product or service to pilots, flight crews, aircraft, or users of the Monroe County Ambulance Service Heliport, you should consider listing it here.  To start the listing process, click on the button below
 
Add a business
 

Other Pages about Monroe County Ambulance Service Heliport

Update a link
 
Copyright © AirNav, LLC. All rights reserved. Privacy Policy  Contact